TimeEDT,TemperatureF,Dew PointF,Humidity,Sea Level PressureIn,VisibilityMPH,Wind Direction,Wind SpeedMPH,Gust SpeedMPH,PrecipitationIn,Events,Conditions,WindDirDegrees,DateUTC
12:56 AM,32.0,19.9,61,30.59,10.0,SE,8.1,-,N/A,,Clear,140,2013-04-22 04:56:00
1:56 AM,32.0,19.9,61,30.57,10.0,SE,5.8,-,N/A,,Clear,140,2013-04-22 05:56:00
2:56 AM,30.9,19.9,64,30.56,10.0,SE,6.9,-,N/A,,Clear,140,2013-04-22 06:56:00
3:56 AM,30.9,19.9,64,30.54,10.0,SE,8.1,-,N/A,,Clear,140,2013-04-22 07:56:00
4:56 AM,30.0,19.9,66,30.54,10.0,SE,5.8,-,N/A,,Clear,140,2013-04-22 08:56:00
5:56 AM,28.9,19.9,69,30.55,10.0,SE,4.6,-,N/A,,Clear,130,2013-04-22 09:56:00
6:56 AM,30.0,21.0,69,30.56,10.0,SE,6.9,-,N/A,,Clear,130,2013-04-22 10:56:00
7:56 AM,33.1,21.9,64,30.57,10.0,SE,8.1,-,N/A,,Clear,140,2013-04-22 11:56:00
8:56 AM,37.9,23.0,55,30.56,10.0,SSE,10.4,-,N/A,,Clear,150,2013-04-22 12:56:00
9:56 AM,43.0,19.0,38,30.55,10.0,SSE,20.7,35.7,N/A,,Clear,160,2013-04-22 13:56:00
10:56 AM,45.0,19.9,37,30.55,10.0,SSE,12.7,28.8,N/A,,Clear,150,2013-04-22 14:56:00
11:56 AM,48.9,21.9,35,30.53,10.0,SE,17.3,21.9,N/A,,Clear,140,2013-04-22 15:56:00
12:56 PM,51.1,23.0,33,30.49,10.0,SE,13.8,18.4,N/A,,Clear,140,2013-04-22 16:56:00
1:56 PM,53.1,23.0,31,30.47,10.0,SE,9.2,23.0,N/A,,Clear,130,2013-04-22 17:56:00
2:56 PM,54.0,21.9,29,30.44,10.0,ESE,12.7,19.6,N/A,,Clear,120,2013-04-22 18:56:00
3:56 PM,55.0,19.9,25,30.42,10.0,SSE,6.9,20.7,N/A,,Clear,150,2013-04-22 19:56:00
4:56 PM,55.0,19.0,24,30.40,10.0,SE,15.0,19.6,N/A,,Clear,140,2013-04-22 20:56:00
5:56 PM,53.1,19.0,26,30.40,10.0,SE,16.1,21.9,N/A,,Clear,140,2013-04-22 21:56:00
6:56 PM,51.1,18.0,27,30.40,10.0,SSE,10.4,-,N/A,,Clear,160,2013-04-22 22:56:00
7:56 PM,48.9,17.1,28,30.40,10.0,SSE,10.4,-,N/A,,Clear,150,2013-04-22 23:56:00
8:56 PM,45.0,18.0,34,30.41,10.0,SSE,8.1,-,N/A,,Clear,150,2013-04-23 00:56:00
9:56 PM,44.1,21.0,40,30.40,10.0,SSE,9.2,-,N/A,,Clear,150,2013-04-23 01:56:00
10:56 PM,42.1,23.0,47,30.40,10.0,SSE,9.2,-,N/A,,Clear,150,2013-04-23 02:56:00
11:56 PM,42.1,24.1,49,30.39,10.0,SSE,9.2,-,N/A,,Clear,160,2013-04-23 03:56:00